Weather History for Farmington, MO

Change the Weather History Date:

Tuesday, August 21, 2012

  Actual Average Record
Temperature  
Mean Temperature 70 °F -  
Max Temperature 89 °F 84 °F 96 °F (2003)
Min Temperature 51 °F 63 °F 51 °F (2012)
Cooling Degree Days 5    
Growing Degree Days 20 (Base 50)    
Moisture  
Dew Point 49 °F    
Average Humidity 51    
Maximum Humidity 88    
Minimum Humidity 21    
Precipitation  
Precipitation 0.00 in - - ()
Sea Level Pressure  
Sea Level Pressure 30.05 in    
Wind  
Wind Speed 2 mph (NW)    
Max Wind Speed 14 mph    
Max Gust Speed 17 mph    
Visibility 10 miles    
Events      
Averages and records for this station are not official NWS values.
T = Trace of Precipitation, MM = Missing Value Source: NWS Daily Summary

Daily Weather History Graph

Daily Weather History Graph

Search for Another Location

Airport:

Trip Planner

Search our weather history database for the weather conditions in past years. The results will help you decide how hot, cold, wet, or windy it might be!

Date:

Astronomy

Aug. 21, 2012 Rise Set
Actual Time 6:22 AM CDT 7:45 PM CDT
Civil Twilight 5:55 AM CDT 8:13 PM CDT
Nautical Twilight 5:22 AM CDT 8:46 PM CDT
Astronomical Twilight 4:47 AM CDT 9:20 PM CDT
Moon 10:47 AM CDT (8/21) 9:53 PM CDT (8/21)
Length of Visible Light 14h 17m
Length of Day
13h 23m
Waxing Crescent, 19% of the Moon is Illuminated
Aug 21
Waxing Crescent
Aug 24
First Quarter
Aug 31
Full
Sep 8
Last Quarter
Sep 15
New

Hourly Weather History & Observations

Time (CDT) Temp. Dew Point Humidity Pressure Visibility Wind Dir Wind Speed Gust Speed Precip Events Conditions
12:15 AM 59.0 °F 50.0 °F 72% 30.03 in 10.0 mi Calm Calm - N/A   Clear
12:35 AM 59.0 °F 50.0 °F 72% 30.02 in 10.0 mi Calm Calm - N/A   Clear
12:55 AM 59.0 °F 50.0 °F 72% 30.02 in 10.0 mi Calm Calm - N/A   Clear
1:15 AM 57.2 °F 50.0 °F 77% 30.02 in 10.0 mi Calm Calm - N/A   Clear
1:35 AM 57.2 °F 50.0 °F 77% 30.02 in 10.0 mi Calm Calm - N/A   Clear
1:55 AM 55.4 °F 48.2 °F 77% 30.03 in 10.0 mi Calm Calm - N/A   Clear
2:15 AM 57.2 °F 50.0 °F 77% 30.02 in 10.0 mi Calm Calm - N/A   Clear
2:35 AM 55.4 °F 50.0 °F 82% 30.03 in 10.0 mi Calm Calm - N/A   Clear
2:55 AM 55.4 °F 50.0 °F 82% 30.03 in 10.0 mi Calm Calm - N/A   Clear
3:15 AM 55.4 °F 50.0 °F 82% 30.03 in 10.0 mi Calm Calm - N/A   Clear
3:35 AM 55.4 °F 51.8 °F 88% 30.03 in 10.0 mi Calm Calm - N/A   Clear
3:55 AM 55.4 °F 48.2 °F 77% 30.03 in 10.0 mi Calm Calm - N/A   Clear
4:15 AM 53.6 °F 48.2 °F 82% 30.03 in 10.0 mi Calm Calm - N/A   Clear
4:35 AM 55.4 °F 50.0 °F 82% 30.03 in 10.0 mi Calm Calm - N/A   Clear
4:55 AM 53.6 °F 50.0 °F 88% 30.03 in 10.0 mi Calm Calm - N/A   Clear
5:15 AM 53.6 °F 48.2 °F 82% 30.03 in 10.0 mi Calm Calm - N/A   Clear
5:35 AM 53.6 °F 48.2 °F 82% 30.04 in 10.0 mi Calm Calm - N/A   Clear
5:55 AM 53.6 °F 50.0 °F 88% 30.04 in 10.0 mi Calm Calm - N/A   Clear
6:15 AM 53.6 °F 48.2 °F 82% 30.05 in 10.0 mi Calm Calm - N/A   Clear
6:35 AM 51.8 °F 48.2 °F 88% 30.06 in 10.0 mi Calm Calm - N/A   Clear
6:55 AM 53.6 °F 48.2 °F 82% 30.06 in 10.0 mi Calm Calm - N/A   Clear
7:15 AM 53.6 °F 50.0 °F 88% 30.06 in 10.0 mi Calm Calm - N/A   Clear
7:35 AM 55.4 °F 51.8 °F 88% 30.06 in 10.0 mi Calm Calm - N/A   Clear
7:55 AM 59.0 °F 51.8 °F 77% 30.06 in 10.0 mi Calm Calm - N/A   Clear
8:15 AM 62.6 °F 53.6 °F 72% 30.07 in 10.0 mi Calm Calm - N/A   Clear
8:35 AM 64.4 °F 51.8 °F 64% 30.07 in 10.0 mi Calm Calm - N/A   Clear
8:55 AM 69.8 °F 51.8 °F 53% 30.07 in 10.0 mi Calm Calm - N/A   Clear
9:15 AM 75.2 °F 50.0 °F 41% 30.07 in 10.0 mi NNE 5.8 mph - N/A   Mostly Cloudy
9:35 AM 75.2 °F 53.6 °F 47% 30.07 in 10.0 mi Calm Calm - N/A   Scattered Clouds
9:55 AM 77.0 °F 51.8 °F 41% 30.08 in 10.0 mi NW 3.5 mph - N/A   Clear
10:15 AM 80.6 °F 50.0 °F 34% 30.09 in 10.0 mi WNW 8.1 mph - N/A   Scattered Clouds
10:35 AM 80.6 °F 48.2 °F 32% 30.09 in 10.0 mi NNW 6.9 mph - N/A   Mostly Cloudy
10:55 AM 80.6 °F 48.2 °F 32% 30.09 in 10.0 mi North 3.5 mph - N/A   Partly Cloudy
11:15 AM 82.4 °F 46.4 °F 28% 30.09 in 10.0 mi NNW 6.9 mph - N/A   Scattered Clouds
11:35 AM 82.4 °F 48.2 °F 30% 30.09 in 10.0 mi NNW 5.8 mph - N/A   Scattered Clouds
11:55 AM 82.4 °F 48.2 °F 30% 30.09 in 10.0 mi WNW 3.5 mph - N/A   Partly Cloudy
12:15 PM 84.2 °F 46.4 °F 27% 30.08 in 10.0 mi NW 5.8 mph - N/A   Partly Cloudy
12:35 PM 86.0 °F 46.4 °F 25% 30.08 in 10.0 mi WNW 4.6 mph - N/A   Partly Cloudy
12:55 PM 84.2 °F 46.4 °F 27% 30.07 in 10.0 mi NW 10.4 mph - N/A   Mostly Cloudy
1:15 PM 86.0 °F 44.6 °F 23% 30.06 in 10.0 mi WSW 3.5 mph - N/A   Scattered Clouds
1:35 PM 87.8 °F 46.4 °F 24% 30.06 in 10.0 mi WNW 10.4 mph 17.3 mph N/A   Partly Cloudy
1:55 PM 87.8 °F 46.4 °F 24% 30.05 in 10.0 mi West 8.1 mph - N/A   Scattered Clouds
2:15 PM 86.0 °F 44.6 °F 23% 30.05 in 10.0 mi West 10.4 mph - N/A   Mostly Cloudy
2:35 PM 87.8 °F 44.6 °F 22% 30.04 in 10.0 mi WNW 8.1 mph 16.1 mph N/A   Overcast
2:55 PM 89.6 °F 46.4 °F 22% 30.03 in 10.0 mi WNW 6.9 mph - N/A   Overcast
3:15 PM 89.6 °F 44.6 °F 21% 30.03 in 10.0 mi WNW 13.8 mph 17.3 mph N/A   Mostly Cloudy
3:35 PM 89.6 °F 44.6 °F 21% 30.02 in 10.0 mi WSW 9.2 mph - N/A   Scattered Clouds
3:55 PM 87.8 °F 44.6 °F 22% 30.03 in 10.0 mi NW 10.4 mph - N/A   Mostly Cloudy
4:15 PM 89.6 °F 44.6 °F 21% 30.02 in 10.0 mi NW 9.2 mph - N/A   Overcast
4:55 PM 87.8 °F 44.6 °F 22% 30.02 in 10.0 mi West 4.6 mph - N/A   Partly Cloudy
5:15 PM 87.8 °F 44.6 °F 22% 30.02 in 10.0 mi WNW 6.9 mph - N/A   Clear
5:35 PM 89.6 °F 44.6 °F 21% 30.02 in 10.0 mi WNW 5.8 mph - N/A   Clear
5:55 PM 87.8 °F 44.6 °F 22% 30.03 in 10.0 mi West 3.5 mph - N/A   Mostly Cloudy
6:15 PM 87.8 °F 44.6 °F 22% 30.02 in 10.0 mi WNW 4.6 mph - N/A   Mostly Cloudy
6:35 PM 86.0 °F 44.6 °F 23% 30.03 in 10.0 mi North 3.5 mph - N/A   Partly Cloudy
6:55 PM 86.0 °F 46.4 °F 25% 30.03 in 10.0 mi Calm Calm - N/A   Mostly Cloudy
7:15 PM 86.0 °F 48.2 °F 27% 30.03 in 10.0 mi East 11.5 mph - N/A   Overcast
7:35 PM 82.4 °F 50.0 °F 32% 30.04 in 10.0 mi East 9.2 mph - N/A   Scattered Clouds
7:55 PM 80.6 °F 50.0 °F 34% 30.05 in 10.0 mi East 6.9 mph - N/A   Clear
8:15 PM 78.8 °F 51.8 °F 39% 30.05 in 10.0 mi East 5.8 mph - N/A   Clear
8:35 PM 75.2 °F 51.8 °F 44% 30.06 in 10.0 mi East 4.6 mph - N/A   Clear
8:55 PM 75.2 °F 51.8 °F 44% 30.07 in 10.0 mi Calm Calm - N/A   Clear
9:15 PM 75.2 °F 51.8 °F 44% 30.07 in 10.0 mi Calm Calm - N/A   Clear
9:35 PM 73.4 °F 51.8 °F 47% 30.08 in 10.0 mi Calm Calm - N/A   Clear
9:55 PM 71.6 °F 51.8 °F 50% 30.07 in 10.0 mi East 3.5 mph - N/A   Clear
10:15 PM 69.8 °F 51.8 °F 53% 30.08 in 10.0 mi Calm Calm - N/A   Clear
10:35 PM 69.8 °F 51.8 °F 53% 30.08 in 10.0 mi Calm Calm - N/A   Clear
10:55 PM 66.2 °F 51.8 °F 60% 30.08 in 10.0 mi Calm Calm - N/A   Clear
11:15 PM 68.0 °F 51.8 °F 56% 30.07 in 5.0 mi Calm Calm - N/A   Clear
11:35 PM 64.4 °F 53.6 °F 68% 30.07 in 10.0 mi Calm Calm - N/A   Clear
11:55 PM 64.4 °F 51.8 °F 64% 30.07 in 10.0 mi Calm Calm - N/A   Clear